PSA210 PHTO-PHLI

Flight info

Callsign PSA210
Flight time 0h 49m
Altitude 30000
Route PPKEO1 LAVAS V16 NAPUA
Aircraft A20N/M-SDE2E3FGHIJ1RWXY/LB1

Departure

Time 2026-04-21 06:15
Airport Hilo International Airport (PHTO)

Arrival

Time 2026-04-21 07:04
Airport Lihue Airport (PHLI)
Time Latitude Longitude Altitude Speed Heading
2026-04-21 05:39 19.71540 -155.04039 70 ft 0 kts 180°
2026-04-21 06:00 19.71543 -155.04039 70 ft 0 kts 180°
2026-04-21 06:00 19.71548 -155.04039 70 ft 1 kts 179°
2026-04-21 06:00 19.71563 -155.04039 68 ft 2 kts 180°
2026-04-21 06:00 19.71578 -155.04039 67 ft 2 kts 180°
2026-04-21 06:01 19.71593 -155.04039 66 ft 2 kts 180°
2026-04-21 06:01 19.71608 -155.04036 65 ft 2 kts 204°
2026-04-21 06:01 19.71621 -155.04028 63 ft 2 kts 223°
2026-04-21 06:01 19.71631 -155.04016 63 ft 2 kts 243°
2026-04-21 06:02 19.71636 -155.04001 62 ft 2 kts 263°
2026-04-21 06:02 19.71636 -155.03986 63 ft 2 kts 273°
2026-04-21 06:02 19.71636 -155.03979 63 ft 0 kts 269°
2026-04-21 06:04 19.71636 -155.03989 63 ft 2 kts 269°
2026-04-21 06:04 19.71637 -155.04027 62 ft 6 kts 278°
2026-04-21 06:05 19.71677 -155.04063 60 ft 10 kts 348°
2026-04-21 06:05 19.71755 -155.04069 60 ft 11 kts 359°
2026-04-21 06:05 19.71844 -155.04068 60 ft 14 kts
2026-04-21 06:05 19.71946 -155.04066 60 ft 13 kts
2026-04-21 06:06 19.72001 -155.04039 60 ft 4 kts 60°
2026-04-21 06:06 19.72009 -155.04007 60 ft 7 kts 84°
2026-04-21 06:06 19.72009 -155.03934 60 ft 8 kts 90°
2026-04-21 06:06 19.72009 -155.03873 60 ft 10 kts 90°
2026-04-21 06:07 19.72008 -155.03775 60 ft 15 kts 89°
2026-04-21 06:07 19.72009 -155.03635 58 ft 20 kts 90°
2026-04-21 06:07 19.72009 -155.03590 57 ft 16 kts 91°
2026-04-21 06:08 19.72008 -155.03519 57 ft 15 kts 89°
2026-04-21 06:08 19.72009 -155.03412 57 ft 13 kts 90°
2026-04-21 06:09 19.72009 -155.03342 57 ft 12 kts 90°
2026-04-21 06:09 19.72009 -155.03307 57 ft 7 kts 90°
2026-04-21 06:09 19.72009 -155.03278 57 ft 5 kts 89°
2026-04-21 06:09 19.72010 -155.03203 58 ft 6 kts 91°
2026-04-21 06:10 19.72010 -155.03201 58 ft 0 kts 91°
2026-04-21 06:11 19.72010 -155.03197 58 ft 4 kts 91°
2026-04-21 06:11 19.72009 -155.03157 59 ft 0 kts 89°
2026-04-21 06:13 19.72009 -155.03155 59 ft 0 kts 89°
2026-04-21 06:13 19.72010 -155.03113 59 ft 12 kts 90°
2026-04-21 06:13 19.72010 -155.03020 60 ft 12 kts 90°
2026-04-21 06:13 19.72059 -155.02948 60 ft 13 kts 14°
2026-04-21 06:14 19.72138 -155.02971 59 ft 9 kts 295°
2026-04-21 06:14 19.72136 -155.03011 59 ft 0 kts 269°
2026-04-21 06:14 19.72136 -155.03119 59 ft 50 kts 270°
2026-04-21 06:14 19.72121 -155.03775 60 ft 125 kts 271°
2026-04-21 06:15 19.72148 -155.04886 331 ft 159 kts 269°
2026-04-21 06:15 19.72274 -155.05991 1040 ft 156 kts 298°
2026-04-21 06:15 19.73105 -155.06696 1650 ft 158 kts 353°
2026-04-21 06:15 19.74205 -155.06723 2177 ft 167 kts
2026-04-21 06:16 19.75427 -155.06612 2676 ft 183 kts
2026-04-21 06:16 19.76739 -155.06424 3185 ft 200 kts 10°
2026-04-21 06:16 19.78173 -155.06238 3758 ft 215 kts
2026-04-21 06:16 19.79753 -155.06070 4207 ft 239 kts
2026-04-21 06:17 19.81479 -155.05917 4797 ft 258 kts
2026-04-21 06:17 19.83320 -155.05771 5519 ft 271 kts
2026-04-21 06:17 19.85192 -155.05627 6438 ft 274 kts
2026-04-21 06:17 19.87116 -155.05486 7378 ft 277 kts
2026-04-21 06:18 19.89006 -155.05699 8212 ft 280 kts 338°
2026-04-21 06:18 19.90613 -155.06839 9084 ft 280 kts 313°
2026-04-21 06:18 19.91878 -155.08371 9941 ft 282 kts 310°
2026-04-21 06:18 19.93187 -155.09975 10623 ft 292 kts 310°
2026-04-21 06:19 19.94553 -155.11626 11059 ft 310 kts 310°
2026-04-21 06:19 19.96044 -155.13409 11465 ft 328 kts 311°
2026-04-21 06:19 19.97600 -155.15262 11881 ft 344 kts 311°
2026-04-21 06:19 19.99210 -155.17184 12592 ft 350 kts 310°
2026-04-21 06:20 20.00822 -155.19133 13383 ft 353 kts 310°
2026-04-21 06:20 20.02446 -155.21100 14140 ft 357 kts 310°
2026-04-21 06:20 20.04063 -155.23061 14916 ft 359 kts 310°
2026-04-21 06:20 20.05662 -155.25099 15683 ft 360 kts 307°
2026-04-21 06:21 20.07136 -155.27237 16408 ft 362 kts 303°
2026-04-21 06:21 20.08542 -155.29451 17133 ft 363 kts 302°
2026-04-21 06:21 20.09952 -155.31697 17815 ft 366 kts 302°
2026-04-21 06:21 20.11373 -155.33960 18492 ft 368 kts 302°
2026-04-21 06:22 20.12695 -155.36269 19165 ft 369 kts 298°
2026-04-21 06:22 20.13851 -155.38715 19838 ft 370 kts 294°
2026-04-21 06:22 20.14816 -155.41246 20498 ft 372 kts 291°
2026-04-21 06:22 20.15712 -155.43831 21128 ft 375 kts 291°
2026-04-21 06:23 20.16603 -155.46428 21760 ft 377 kts 291°
2026-04-21 06:23 20.17508 -155.49069 22254 ft 382 kts 291°
2026-04-21 06:23 20.18423 -155.51739 22590 ft 391 kts 291°
2026-04-21 06:23 20.19365 -155.54489 23113 ft 395 kts 292°
2026-04-21 06:24 20.20302 -155.57220 23692 ft 397 kts 292°
2026-04-21 06:24 20.21245 -155.59969 24234 ft 399 kts 291°
2026-04-21 06:24 20.22211 -155.62784 24753 ft 402 kts 292°
2026-04-21 06:24 20.23163 -155.65567 25246 ft 405 kts 291°
2026-04-21 06:25 20.24125 -155.68379 25728 ft 408 kts 291°
2026-04-21 06:25 20.25100 -155.71233 26321 ft 408 kts 291°
2026-04-21 06:25 20.26056 -155.74034 27054 ft 404 kts 291°
2026-04-21 06:25 20.27005 -155.76814 27751 ft 400 kts 291°
2026-04-21 06:26 20.27950 -155.79584 28400 ft 397 kts 291°
2026-04-21 06:26 20.28887 -155.82333 28907 ft 397 kts 291°
2026-04-21 06:26 20.29833 -155.85107 29311 ft 399 kts 291°
2026-04-21 06:26 20.30780 -155.87888 29702 ft 401 kts 292°
2026-04-21 06:27 20.31742 -155.90707 30004 ft 404 kts 291°
2026-04-21 06:27 20.33679 -155.96396 30029 ft 415 kts 291°
2026-04-21 06:28 20.35638 -156.02165 30030 ft 416 kts 291°
2026-04-21 06:28 20.37607 -156.07974 30031 ft 417 kts 291°
2026-04-21 06:29 20.39581 -156.13803 30034 ft 417 kts 291°
2026-04-21 06:29 20.41546 -156.19612 30032 ft 418 kts 291°
2026-04-21 06:30 20.43496 -156.25386 30033 ft 417 kts 292°
2026-04-21 06:30 20.45459 -156.31204 30032 ft 417 kts 292°
2026-04-21 06:31 20.47412 -156.36997 30031 ft 416 kts 292°
2026-04-21 06:31 20.49588 -156.42711 30032 ft 416 kts 296°
2026-04-21 06:32 20.52211 -156.48171 30033 ft 415 kts 300°
2026-04-21 06:32 20.54929 -156.53609 30031 ft 414 kts 300°
2026-04-21 06:33 20.57635 -156.59029 30032 ft 415 kts 300°
2026-04-21 06:33 20.60346 -156.64461 30031 ft 415 kts 300°
2026-04-21 06:34 20.63051 -156.69890 30032 ft 415 kts 300°
2026-04-21 06:34 20.65753 -156.75319 30031 ft 416 kts 300°
2026-04-21 06:35 20.68463 -156.80766 30032 ft 416 kts 300°
2026-04-21 06:35 20.71172 -156.86214 30026 ft 416 kts 300°
2026-04-21 06:36 20.73883 -156.91678 30026 ft 416 kts 300°
2026-04-21 06:36 20.76397 -156.97192 30029 ft 417 kts 296°
2026-04-21 06:37 20.78449 -157.03012 30032 ft 419 kts 292°
2026-04-21 06:37 20.80350 -157.08896 30032 ft 419 kts 292°
2026-04-21 06:38 20.82232 -157.14735 30033 ft 419 kts 292°
2026-04-21 06:38 20.84138 -157.20647 30032 ft 419 kts 292°
2026-04-21 06:39 20.86029 -157.26520 30032 ft 419 kts 292°
2026-04-21 06:39 20.87927 -157.32420 30032 ft 420 kts 292°
2026-04-21 06:40 20.89814 -157.38301 30031 ft 420 kts 292°
2026-04-21 06:40 20.91699 -157.44183 30032 ft 420 kts 292°
2026-04-21 06:41 20.93592 -157.50090 30031 ft 420 kts 292°
2026-04-21 06:41 20.95479 -157.55997 30032 ft 419 kts 292°
2026-04-21 06:42 20.97360 -157.61877 30031 ft 419 kts 292°
2026-04-21 06:42 20.99242 -157.67775 30033 ft 419 kts 292°
2026-04-21 06:43 21.01124 -157.73682 30033 ft 420 kts 292°
2026-04-21 06:43 21.03002 -157.79585 30034 ft 420 kts 292°
2026-04-21 06:44 21.04869 -157.85463 30035 ft 420 kts 292°
2026-04-21 06:44 21.06753 -157.91411 30035 ft 421 kts 292°
2026-04-21 06:45 21.08629 -157.97337 30036 ft 421 kts 292°
2026-04-21 06:45 21.10500 -158.03250 30038 ft 421 kts 292°
2026-04-21 06:46 21.12369 -158.09160 29835 ft 413 kts 292°
2026-04-21 06:46 21.13280 -158.12058 29511 ft 407 kts 292°
2026-04-21 06:46 21.14177 -158.14903 28999 ft 403 kts 292°
2026-04-21 06:46 21.15074 -158.17747 28343 ft 401 kts 292°
2026-04-21 06:47 21.15960 -158.20557 27623 ft 402 kts 292°
2026-04-21 06:47 21.16852 -158.23384 26854 ft 404 kts 292°
2026-04-21 06:47 21.17748 -158.26225 26042 ft 406 kts 292°
2026-04-21 06:47 21.18744 -158.29040 25233 ft 407 kts 296°
2026-04-21 06:48 21.19923 -158.31761 24667 ft 401 kts 299°
2026-04-21 06:48 21.21254 -158.34348 24117 ft 396 kts 302°
2026-04-21 06:48 21.22708 -158.36874 23544 ft 393 kts 303°
2026-04-21 06:48 21.24130 -158.39316 22983 ft 390 kts 303°
2026-04-21 06:49 21.25575 -158.41788 22415 ft 387 kts 303°
2026-04-21 06:49 21.26983 -158.44189 21857 ft 385 kts 303°
2026-04-21 06:49 21.28403 -158.46609 21288 ft 382 kts 303°
2026-04-21 06:49 21.29819 -158.49023 20721 ft 380 kts 302°
2026-04-21 06:50 21.31222 -158.51413 20150 ft 379 kts 302°
2026-04-21 06:50 21.32620 -158.53798 19582 ft 377 kts 301°
2026-04-21 06:50 21.34011 -158.56177 19010 ft 375 kts 301°
2026-04-21 06:50 21.35382 -158.58522 18442 ft 374 kts 301°
2026-04-21 06:51 21.36774 -158.60906 17851 ft 373 kts 300°
2026-04-21 06:51 21.38143 -158.63251 17270 ft 372 kts 300°
2026-04-21 06:51 21.39508 -158.65601 16682 ft 371 kts 300°
2026-04-21 06:51 21.40870 -158.67944 16087 ft 371 kts 300°
2026-04-21 06:52 21.42230 -158.70283 15481 ft 371 kts 300°
2026-04-21 06:52 21.43605 -158.72647 14866 ft 370 kts 301°
2026-04-21 06:52 21.44965 -158.74986 14258 ft 369 kts 301°
2026-04-21 06:52 21.46307 -158.77293 13659 ft 368 kts 301°
2026-04-21 06:53 21.47662 -158.79623 13052 ft 367 kts 301°
2026-04-21 06:53 21.49012 -158.81944 12455 ft 365 kts 301°
2026-04-21 06:53 21.50353 -158.84248 11861 ft 363 kts 301°
2026-04-21 06:53 21.51683 -158.86536 11269 ft 361 kts 301°
2026-04-21 06:54 21.53005 -158.88805 10873 ft 353 kts 301°
2026-04-21 06:54 21.54282 -158.90994 10624 ft 341 kts 301°
2026-04-21 06:54 21.55525 -158.93127 10362 ft 330 kts 301°
2026-04-21 06:54 21.56707 -158.95157 10203 ft 317 kts 301°
2026-04-21 06:55 21.57857 -158.97136 10025 ft 302 kts 301°
2026-04-21 06:55 21.58938 -158.98994 9690 ft 291 kts 301°
2026-04-21 06:55 21.59992 -159.00813 9249 ft 281 kts 301°
2026-04-21 06:55 21.61018 -159.02582 8824 ft 278 kts 301°
2026-04-21 06:56 21.62035 -159.04334 8408 ft 278 kts 301°
2026-04-21 06:56 21.63060 -159.06104 8000 ft 277 kts 301°
2026-04-21 06:56 21.64076 -159.07855 7595 ft 277 kts 302°
2026-04-21 06:56 21.65090 -159.09605 7192 ft 277 kts 302°
2026-04-21 06:57 21.66107 -159.11360 6784 ft 278 kts 302°
2026-04-21 06:57 21.67136 -159.13135 6376 ft 277 kts 302°
2026-04-21 06:57 21.68147 -159.14880 5977 ft 277 kts 302°
2026-04-21 06:57 21.69162 -159.16634 5580 ft 276 kts 302°
2026-04-21 06:58 21.70180 -159.18396 5174 ft 276 kts 302°
2026-04-21 06:58 21.71191 -159.20149 4788 ft 274 kts 302°
2026-04-21 06:58 21.72187 -159.21874 4420 ft 273 kts 302°
2026-04-21 06:58 21.73195 -159.23622 4030 ft 272 kts 303°
2026-04-21 06:59 21.74171 -159.25310 3673 ft 262 kts 303°
2026-04-21 06:59 21.75128 -159.26959 3375 ft 257 kts 303°
2026-04-21 06:59 21.76070 -159.28580 3072 ft 255 kts 303°
2026-04-21 06:59 21.76985 -159.30156 2971 ft 244 kts 303°
2026-04-21 07:00 21.77863 -159.31668 2964 ft 228 kts 303°
2026-04-21 07:00 21.78718 -159.33019 2944 ft 209 kts 317°
2026-04-21 07:00 21.79991 -159.33681 2958 ft 206 kts 353°
2026-04-21 07:00 21.81421 -159.33722 2884 ft 206 kts
2026-04-21 07:01 21.82859 -159.33641 2636 ft 202 kts
2026-04-21 07:01 21.84230 -159.33594 2372 ft 194 kts
2026-04-21 07:01 21.86842 -159.33588 1940 ft 181 kts
2026-04-21 07:02 21.88123 -159.33589 1732 ft 182 kts
2026-04-21 07:02 21.89381 -159.33589 1469 ft 180 kts
2026-04-21 07:02 21.90602 -159.33588 1243 ft 167 kts
2026-04-21 07:02 21.91720 -159.33589 1007 ft 155 kts
2026-04-21 07:03 21.92759 -159.33589 792 ft 141 kts
2026-04-21 07:03 21.93724 -159.33589 624 ft 136 kts
2026-04-21 07:03 21.94669 -159.33589 461 ft 136 kts
2026-04-21 07:03 21.95623 -159.33592 283 ft 135 kts
2026-04-21 07:04 21.96565 -159.33591 130 ft 135 kts
2026-04-21 07:04 21.97312 -159.33583 127 ft 66 kts 355°
2026-04-21 07:04 21.97577 -159.33594 128 ft 29 kts
2026-04-21 07:04 21.97773 -159.33620 128 ft 27 kts 340°
2026-04-21 07:05 21.97902 -159.33687 128 ft 18 kts 318°
2026-04-21 07:05 21.97940 -159.33810 132 ft 15 kts 271°
2026-04-21 07:05 21.97939 -159.33910 139 ft 11 kts 269°
2026-04-21 07:05 21.97937 -159.34021 146 ft 18 kts 269°
2026-04-21 07:06 21.97938 -159.34160 152 ft 18 kts 270°
2026-04-21 07:06 21.97938 -159.34291 157 ft 16 kts 270°
2026-04-21 07:06 21.97905 -159.34389 161 ft 13 kts 227°
2026-04-21 07:06 21.97821 -159.34479 165 ft 19 kts 224°
2026-04-21 07:07 21.97740 -159.34570 170 ft 13 kts 245°
2026-04-21 07:07 21.97767 -159.34645 175 ft 9 kts 312°
2026-04-21 07:07 21.97813 -159.34672 178 ft 8 kts 345°
2026-04-21 07:07 21.97876 -159.34700 180 ft 6 kts 318°
2026-04-21 07:08 21.97886 -159.34712 180 ft 0 kts 315°
2026-04-21 07:08 21.97887 -159.34712 180 ft 0 kts 315°